CZ-4C R/B, 59729

Orbit data source: Space-Track

CZ-4C R/B, 59729 is space debris in SSO originally from a launch on Sat, 11 May 2024 UTC launched from the Jiuquan Satellite Launch Center, China (JSC). Debris objects in space refer to the collection of defunct objects orbiting the Earth. Examples of debris include non-operational satellites, rocket bodies, and fragments generated from explosions, collisions, or faulty payload assembly.

Loading next visibility...
Identifier
59729, 2024-089B
Orbit
SSO
Country
Flag of CNCN / PRC
Related business
Manufacturer
SAST
Mission
Spacecraft
Bus & Motor
CZ-4 STAGE 3, Unknown motor
Mass
~1,000 kg wet, ~1,000 kg dry
Launch date (UTC)
2024-05-11 (2 years ago)
Launch vehicle
Unknown
Launch site
Jiuquan Satellite Launch Center, China (JSC)
Object type
Payload
Rocket body
Debris
Shape & HBR
Cyl, 2.5 m
Radar Cross Section
14.536 m², Large (>1 m²)

Expand to show TLE details & history
Last TLE update: 21 hours ago

TLE from 21 hours ago
0 CZ-4C R/B
1 59729U 24089B   26236.08567379  .00007829  00000-0  22938-3 0  9992
2 59729  97.6936 281.3012 0073009   5.8533 354.3545 15.32844813127057
Epoch: 2026-08-24T02:03Z
TLE epoch observation values (Epoch: 2026-08-24T02:03:22.215Z)
Latitude
0.00007°
Longitude
-81.91381°
Altitude
420.686 km
Speed
7.687 km/s
True Right ascension
18h 45m 12s
True Declination
0° 00' 00"
Sunlit
Object was in full shadow at epoch
Visualization orbit readout
Latitude
Unknown
Longitude
Unknown
Altitude
Unknown
Speed
Unknown
Apparent Right ascension
Unknown
Apparent Declination
Unknown
Sunlit
N/A
Visualization observer readout
Local Sidereal Time
14:38:09
Azimuth
Unknown
Elevation
Unknown
Doppler factor
Unknown
Orbital elements
Apogee altitude
514.246 km
Perigee altitude
414.335 km
Semi-major axis
6,842.428 km
Eccentricity
0.0073
Inclination
97.6936°
RAAN
281.3012°
Arg. of periapsis
5.8533°
True anomaly
354.27144°
Mean anomaly
354.3545°
Eccentric anomaly
354.31305°
Mean motion
3.83467 °/min
Orbital period
93.88 mins
BSTAR
0.00022938
Loading maneuver chart data...
Computing Atmospheric mass density...
Loading historical data...
Loading historical data...
Loading historical data...
Loading historical data...
Loading historical data...
Loading historical data...
Loading historical data...
Other satellites on launch #89 in the year 2024 (2024-05-11 UTC)

Documentation

Showing up to 5 results
|